Flag for Vietnam Weather past 2 weeks in Hanoi, Vietnam

Now
82 °F

Passing clouds.


Feels Like: 92 °F
Forecast: 79 / 95 °F
Wind: 5 mph from Southwest

Location: Ha Noi Airport

Current Time: Jul 23, 2014 at 12:35:20 AM

Latest Report: Jul 22, 2014 at 11:30 PM


Visibility: 5 mi

Pressure: 29.65 "Hg

Humidity: 89%

Dew point: 79 °F

Location of HanoiLocation

Historic Weather in Hanoi — Graph

°F

Hanoi temperature yesterday

Maximum temperature yesterday: 93 °F (at 2:30 PM)
Minimum temperature yesterday: 79 °F (at 12:00 AM)
Average temperature yesterday: 85 °F

Past Weeks' High & Low Weather Summary

 TemperatureHumidityPressure
High97 °F (Jul 9, 3:00 PM)100% (Jul 13, 1:30 AM)29.77 "Hg (Jul 13, 1:30 AM)
Low77 °F (Jul 16, 3:30 AM)53% (Jul 9, 3:00 PM)29.42 "Hg (Jul 19, 2:30 AM)
Average84 °F83%29.62 "Hg
* Reported Jul 8 2:30 AM — Jul 22 11:30 PM, Hanoi, Weather by CustomWeather, © 2014

Note: Actual official high and low records may vary slightly from our data, if they occured in-between our weather recording intervals... More about our weather records

Advertising

Hanoi weather history for previous 24 hours

 ConditionsComfort  
Time TempWeatherWind HumidityBarometerVisibility
11:30 PM
Jul 22
82 °FPassing clouds.5 mph89%29.65 "Hg5 mi
11:00 PM84 °FPassing clouds.7 mph84%29.65 "HgN/A
10:30 PM84 °FPassing clouds.6 mph89%29.68 "HgN/A
10:00 PM84 °FPassing clouds.3 mph89%29.68 "HgN/A
9:30 PM84 °FThundershowers. Passing clouds.7 mph89%29.65 "HgN/A
9:00 PM84 °FPassing clouds.8 mph89%29.65 "HgN/A
8:30 PM84 °FPassing clouds.8 mph89%29.65 "HgN/A
8:00 PM86 °FPassing clouds.6 mph84%29.62 "HgN/A
7:30 PM86 °FPassing clouds.5 mph84%29.62 "HgN/A
7:00 PM88 °FPassing clouds.5 mph75%29.59 "HgN/A
6:30 PM88 °FPartly sunny.6 mph79%29.59 "HgN/A
6:00 PM91 °FPartly sunny.8 mph63%29.59 "HgN/A
5:30 PM91 °FPartly sunny.3 mph63%29.56 "HgN/A
5:00 PM91 °FPartly sunny.3 mph59%29.56 "HgN/A
4:30 PM91 °FPartly sunny.3 mph59%29.56 "HgN/A
4:00 PM93 °FScattered clouds.3 mph56%29.56 "HgN/A
3:30 PM93 °FScattered clouds.5 mph59%29.59 "HgN/A
3:00 PM93 °FScattered clouds.3 mph56%29.59 "HgN/A
2:30 PM93 °FScattered clouds.6 mph56%29.59 "HgN/A
2:00 PM91 °FScattered clouds.5 mph59%29.62 "HgN/A
1:30 PM91 °FScattered clouds.5 mph59%29.62 "HgN/A
1:00 PM91 °FScattered clouds.6 mph63%29.65 "HgN/A
12:30 PM91 °FScattered clouds.5 mph63%29.65 "HgN/A
12:00 PM90 °FScattered clouds.6 mph63%29.68 "HgN/A
11:30 AM90 °FScattered clouds.6 mph67%29.71 "HgN/A
11:00 AM90 °FScattered clouds.5 mph67%29.71 "HgN/A
10:30 AM90 °FScattered clouds.5 mph71%29.71 "HgN/A
10:00 AM88 °FScattered clouds.5 mph70%29.71 "HgN/A
9:30 AM86 °FBroken clouds.3 mph79%29.71 "HgN/A
9:00 AM86 °FBroken clouds.2 mph75%29.71 "HgN/A
8:30 AM84 °FBroken clouds.3 mph84%29.71 "HgN/A
8:00 AM82 °FBroken clouds.2 mph89%29.71 "HgN/A
7:30 AM82 °FBroken clouds.2 mph89%29.71 "HgN/A
7:00 AM81 °FBroken clouds.3 mph94%29.68 "Hg4 mi
6:30 AM79 °FBroken clouds.5 mph100%29.68 "Hg3 mi
6:00 AM79 °FBroken clouds.2 mph94%29.68 "Hg3 mi
5:30 AM79 °FBroken clouds.3 mph94%29.65 "Hg4 mi
5:00 AM79 °FPartly cloudy.3 mph94%29.65 "Hg3 mi
4:30 AM79 °FPassing clouds.3 mph94%29.65 "Hg3 mi
4:00 AM79 °FPartly cloudy.3 mph94%29.65 "Hg4 mi
3:30 AM79 °FPartly cloudy.3 mph94%29.65 "Hg4 mi
3:00 AM79 °FFog.3 mph100%29.65 "Hg2 mi
2:30 AM79 °FPartly cloudy.6 mph94%29.65 "Hg4 mi
2:00 AM79 °FPartly cloudy.6 mph94%29.65 "Hg4 mi
1:30 AM79 °FPassing clouds.5 mph94%29.68 "Hg3 mi
1:00 AM79 °FLight rain. Fog.3 mph94%29.68 "Hg3 mi
12:30 AM79 °FLight rain. Fog.5 mph100%29.68 "Hg2 mi
12:00 AM79 °FHeavy rain. Partly cloudy.6 mph100%N/A2 mi
Weather by CustomWeather, © 2014

See weather overviewHow to use our weather pages